Regional Weather Roundup
Issued by NWS Sioux Falls, SD

Home | Current Version | Previous Version | Graphics & Text | Print | Product List | Glossary On
Versions: 1 2 3 4 5 6 7 8 9 10 11 12 13 14 15 16 17 18 19 20 21 22 23 24 25 26 27 28 29 30 31 32 33 34 35 36 37 38 39 40 41 42 43 44 45 46 47 48 49 50
000
ASUS43 KFSD 200210
RWRFSD

WEATHER ROUNDUP FOR SE SOUTH DAKOTA/SW MINNESOTA/NW IOWA
NATIONAL WEATHER SERVICE SIOUX FALLS SD
900 PM CDT FRI SEP 19 2014

NOTE: "FAIR" INDICATES FEW OR NO CLOUDS BELOW 12,000 FEET WITH NO
SIGNIFICANT WEATHER AND OR OBSTRUCTIONS TO VISIBILITY.


SDZ038>040-050-052>070-200300-
SOUTHEAST SOUTH DAKOTA

CITY           SKY/WX    TMP DP  RH WIND       PRES   REMARKS
CHAMBERLAIN    PTCLDY    71  56  59 NW6       29.78R
HURON          PTCLDY    69  58  67 W5        29.73R
MADISON        MOCLDY    72  66  83 SW7       29.75R
MITCHELL       CLOUDY    75  64  68 W6        29.74R
SIOUX FALLS    MOCLDY    75  66  73 NW7       29.73R
WINNER         FAIR      77  55  46 NW5       29.80R
YANKTON        PTCLDY    75  68  78 CALM      29.70S
$$

MNZ071-072-080-081-089-090-097-098-200300-
SOUTHWEST MINNESOTA

CITY           SKY/WX    TMP DP  RH WIND       PRES   REMARKS
FAIRMONT       PTCLDY    75  59  57 S9        29.73R
JACKSON        PTCLDY    75  66  73 S8        29.74R
LUVERNE        MOCLDY    73  64  73 N5        29.74R
MARSHALL       MOCLDY    72  66  83 W3        29.70R
MONTEVIDEO     PTCLDY    70  63  78 CALM      29.70R
PIPESTONE      LGT RAIN  75  63  64 NW8       29.76R
REDWOOD FALLS  MOCLDY    74  67  78 NW5       29.69R
TRACY          CLOUDY    75  68  77 CALM      29.73R
WINDOM         PTCLDY    73  64  73 CALM      29.73R
WORTHINGTON    PTCLDY    73  66  78 W9        29.75R
$$

IAZ001>003-012>014-020>022-031-032-NEZ013-014-SDZ071-200300-
NORTHWEST IOWA

CITY           SKY/WX    TMP DP  RH WIND       PRES   REMARKS
CHEROKEE       PTCLDY    74  70  86 S15       29.75S
DENISON        CLEAR     73  70  88 S12G22    29.79R
ESTHERVILLE    PTCLDY    74  67  78 S14       29.74R
LE MARS          N/A     77  68  73 S9        29.72F
ORANGE CITY    MOCLDY    75  64  69 S10       29.72F
SHELDON        MOCLDY    77  68  73 S10       29.72S
SIOUX CITY     PTCLDY    76  67  73 S8        29.74S
SPENCER        PTCLDY    76  68  76 S12       29.75R
STORM LAKE     PTCLDY    72  72 100 S10       29.79S
$$

ABBREVIATIONS USED IN REMARKS
   TC - TEMPERATURE IN CELSIUS
  WCI - WIND CHILL INDEX
   HX - HEAT INDEX
  VSB - VISIBILITY




USA.gov is the U.S. government's official web portal to all federal, state and local government web resources and services.